sat.trackr.live / text

‹ back to catalog

UOSAT 2 (UO-11)

NORAD 14781 · 1984-021B

PAYLOAD ACTIVE UNKNOWN

§ Identity

Operator
Country
UK
Launch date
1984-03-01
Launch site
AFWTR
Launch vehicle
Mass (kg)
RCS (m²)
0.40

Purposes: comms

External: N2YO · Heavens-Above · Gunter

§ Orbital elements

Epoch: 2026-09-20T04:32:40.259040Z

Period
96.58 min
Inclination
97.8181°
Eccentricity
0.0006408
Mean motion
14.91001415 rev/d
Perigee alt
590.3 km
Apogee alt
599.3 km
Semi-major
6,972.9 km
B*
1.1210e-4
RAAN
227.7740°
Arg perigee
221.8303°
Mean anomaly
138.2426°
Rev number
27,128

§ Raw data

UOSAT 2 (UO-11)1 14781U 84021B   26263.18935485  .00001052  00000+0  11210-3 0  99932 14781  97.8181 227.7740 0006408 221.8303 138.2426 14.91001415271285

JSON: /api/v1/satellites/14781 · /tle

For live sub-satellite position, see the globe view (requires WebGL).

§ Visibility from observer

Set your observer location to see the next 7 days of passes ≥ 10°. The values pass through the URL so the page stays shareable.

No JS? Fill the form by hand. The geolocation button needs JavaScript.

§ Radio — SatNOGS DB

ModeDescriptionDownlinkUplink
AFSK 1k2 AFSK TLM 145.825 MHz
AFSK 1k2 AFSK Payload (inactive) 435.025 MHz
PSK 4k8 PSK Payload (inactive) 435.025 MHz
FM FM Beacon (inactive) 2.402 GHz

4 transmitters · refreshed weekly from db.satnogs.org